User: anonymous   Login
Location: Turtle Rock Observatory
(36.6913°N, 81.9708°W)
Time: 19:48:48
(UTC-05:00)
Language:

Cosmos 1125 Rocket - Orbit

View from above orbital plane
View from above orbital plane
View from above satellite
View from above satellite

Ground track
Ground track

The orbit data is extracted from the following two-line orbital elements,

1 11511U 79078B   16340.45552930  .00000033  00000-0  20050-4 0  9994
2 11511  74.0365 311.3692 0016938 244.8278 115.1119 14.36744019950791
Epoch (UTC): 05 December 2016 10:55:57
Eccentricity: 0.0016938
inclination: 74.0365°
perigee height: 757 km
apogee height: 781 km
right ascension of ascending node: 311.3692°
argument of perigee: 244.8278°
revolutions per day: 14.36744019
mean anomaly at epoch: 115.1119°
orbit number at epoch: 95079

The dashed part of the orbit path shows where the satellite is in the earth's shadow,  

DLR